Regional Weather Roundup
Issued by NWS

Home | Current Version | Previous Version | Text Only | Print | Product List | Glossary Off
Versions: 1 2 3 4 5 6 7 8 9 10 11 12 13 14 15 16 17 18 19 20 21 22 23 24 25 26 27 28 29 30 31 32 33 34 35 36 37 38 39 40 41 42 43 44 45 46 47 48 49 50

000
ASUS43 KLOT 311706
RWRIL

ILLINOIS REGIONAL WEATHER ROUNDUP
NATIONAL WEATHER SERVICE CHICAGO/ROMEOVILLE IL
1200 PM CDT FRI OCT 31 2014

NOTE: "FAIR" INDICATES FEW OR NO CLOUDS BELOW 12,000 FEET WITH NO
SIGNIFICANT WEATHER AND/OR OBSTRUCTIONS TO VISIBILITY.

* THESE STATIONS ARE NOT UNDER NWS QUALITY CONTROL. THEY ALSO MAY NOT
  REPORT WEATHER SUCH AS PRECIPITATION OR FOG.

ILZ001-002-007-009-015-016-024-311800-
NORTHWEST ILLINOIS

CITY           SKY/WX    TMP DP  RH WIND       PRES   REMARKS
MOLINE         MOSUNNY   42  21  43 N14G28    30.34R
STERLING*      PTSUNNY   43  21  42 N21G32    30.30R
SAVANNA*       MOSUNNY   42  18  38 N20G29    30.32S
$$

ILZ003-004-008-010-011-017-018-311800-
NORTH CENTRAL ILLINOIS

CITY           SKY/WX    TMP DP  RH WIND       PRES   REMARKS
ROCKFORD       PTSUNNY   39  20  46 N31G40    30.29R WCI  27
FREEPORT*      PTSUNNY   37  20  50 N22G35    30.32R WCI  26
ROCHELLE*      CLOUDY    37  22  54 N25G37    30.27R WCI  26
DE KALB*       CLOUDY    36  22  57 N24G39    30.23R WCI  24
PERU*          MOSUNNY   41  23  48 N32G40    30.26R
$$

ILZ005-006-012>014-019>023-311800-
NORTHEAST ILLINOIS

CITY           SKY/WX    TMP DP  RH WIND       PRES   REMARKS
CHICAGO-OHARE  CLOUDY    37  24  59 NW29G41   30.15S WCI  25
CHICAGO-MIDWAY CLOUDY    40  26  57 NW30G48   30.13S
AURORA         PTSUNNY   40  24  53 N32G41    30.20R
LANSING*       CLOUDY    38  28  67 N29G40    30.11S WCI  26
JOLIET*        CLOUDY    39  26  57 N25G36    30.18R WCI  28
WAUKEGAN       CLOUDY    37  24  59 NW23G33   30.16R WCI  26
DUPAGE AIRPORT CLOUDY    37  26  64 N20G38    30.18R WCI  27
KANKAKEE*      CLOUDY    41  28  60 N22G36    30.14R
WHEELING       CLOUDY    38  24  57 N29G37    30.18R WCI  26
MORRIS*        PTSUNNY   41  27  56 N18G28    30.18S
ROMEOVILLE*    LGT RAIN  38  26  62 N26G37    30.17R WCI  26
NORTHERLY ISL    N/A     37  28  70 NW25        N/A  WCI  25
$$

LMZ740>746-311800-
SOUTHERN LAKE MICHIGAN

STATION/POSITION SKY/WX   TEMP    WIND        PRES    VSBY  WAVE
                          AIR SEA DIR/SP/G                  HT/PER
                          (F)     (DEG/KT/KT) (MB)    (MI)  (FT/S)
SOUTHERN BUOY              41 50  350/ 37/ 47 1017.8R        19/11
WAUKEGAN HARBOR            38     340/ 20/ 32   N/A
HARRISON CRIB              38     330/ 40/ 50   N/A
BURNHAM HARBOR             37     340/ 21/ 28   N/A
CALUMET HARBOR             36     300/ 17/ 29 1018.5R
MICHIGAN CITY              41     340/ 46/ 52   N/A
$$

ILZ025>027-034>036-040-047-049-050-058-095>099-311800-
WEST-CENTRAL ILLINOIS

CITY           SKY/WX    TMP DP  RH WIND       PRES   REMARKS
QUINCY         SUNNY     40  23  50 N20G28    30.36S
GALESBURG*     MOSUNNY   41  25  52 NW22G29   30.32R
MACOMB*        MOSUNNY   41  24  50 N24G31    30.36R
JACKSONVILLE*  MOSUNNY   42  25  50 N21G29    30.31R
PITTSFIELD*    SUNNY     42  25  51 NW20      30.34S
$$

ILZ028>032-037-038-041>044-048-051>054-059>061-311800-
CENTRAL ILLINOIS

CITY           SKY/WX    TMP DP  RH WIND       PRES   REMARKS
PONTIAC        CLOUDY    42  26  52 N30G37    30.20S
BLOOMINGTON    PTSUNNY   41  27  56 N29G39    30.20R
DECATUR        CLOUDY    41  28  60 N29G36    30.20S
PEORIA         MOSUNNY   43  23  45 N15G26    30.27R
LACON*         MOSUNNY   41  21  45 N17G29    30.25S
LINCOLN*       CLOUDY    42  26  55 N17G28    30.24S
SPRINGFIELD    PTSUNNY   42  26  53 N23G31    30.27R
TAYLORVILLE    CLOUDY    37  28  70 N25G33    30.24S WCI  26
$$

ILZ033-039-045-046-055>057-062-063-311800-
EAST-CENTRAL ILLINOIS

CITY           SKY/WX    TMP DP  RH WIND       PRES   REMARKS
CHAMPAIGN      CLOUDY    41  29  62 MISG      30.15R
DANVILLE*      LGT RAIN  39  30  72 N17G31    30.08S WCI  29
RANTOUL*       CLOUDY    42  28  58 N26G37    30.15R
MATTOON        CLOUDY    39  29  67 N25G35    30.16R WCI  28
PARIS*         CLOUDY    40  31  70 N20G30    30.13R
$$

ILZ079-100>102-311800-
SOUTHWEST ILLINOIS

CITY           SKY/WX    TMP DP  RH WIND       PRES   REMARKS
ALTON          MOSUNNY   41  19  42 N17G29    30.29R
BELLEVILLE     SUNNY     44  26  49 N14G25    30.26R
CAHOKIA*       MOSUNNY   44  27  51 NW25G35   30.30R
SPARTA*        MOSUNNY   43  27  51 N15G24    30.24S
$$

ILZ064>066-069>071-074>076-080>082-084>086-088>090-092>094-311800-
SOUTH-CENTRAL ILLINOIS

CITY           SKY/WX    TMP DP  RH WIND       PRES   REMARKS
CARBONDALE     MOSUNNY   47  27  45 N18G33    30.20R
CAIRO*         CLOUDY    52  39  61 N20G29    30.16R
EFFINGHAM*     CLOUDY    40  26  56 NW20G41   30.18S
MARION         PTSUNNY   46  28  49 N16G24    30.18R
MT. VERNON     MOSUNNY   43  21  42 NW10G26   30.20R
CENTRALIA*     MOSUNNY   42  26  52 NW18G33   30.21R
SALEM*         MOSUNNY   45  29  52 NW24G32   30.22R
METROPOLIS*    CLOUDY    47  35  62 NW20G31   30.14R
$$

ILZ067-068-072-073-078-083-087-091-311800-
SOUTHEAST ILLINOIS

CITY           SKY/WX    TMP DP  RH WIND       PRES   REMARKS
LAWRENCEVILLE  CLOUDY    43  32  65 NW23G30   30.13R
FLORA*         SUNNY     42  27  54 NW23G31   30.17S
FAIRFIELD*     MOSUNNY   43  23  45 NW16G35   30.17R
HARRISBURG*    CLOUDY    46  29  50 NW18G28   30.17R
ROBINSON*      CLOUDY    43  32  65 N22G30    30.14S
CARMI*         PTSUNNY   47  33  58 NW24G33   30.14S
$$

ABBREVIATIONS USED IN REMARKS
   TC - TEMPERATURE IN CELSIUS
  WCI - WIND CHILL INDEX
   HX - HEAT INDEX
  VSB - VISIBILITY
$$




USA.gov is the U.S. government's official web portal to all federal, state and local government web resources and services.